Regional Weather Roundup
Issued by NWS

Home | Current Version | Previous Version | Graphics & Text | Print | Product List | Glossary On
Versions: 1 2 3 4 5 6 7 8 9 10 11 12 13 14 15 16 17 18 19 20 21 22 23 24 25 26 27 28 29 30 31 32 33 34 35 36 37 38 39 40 41 42 43 44 45 46 47 48 49 50
000
ASUS45 KBOU 210707
RWRCO

WEATHER ROUNDUP FOR COLORADO
NATIONAL WEATHER SERVICE DENVER/BOULDER CO
100 AM MDT SUN SEP 21 2014

NOTE: "FAIR" INDICATES FEW OR NO CLOUDS BELOW 12000 FEET WITH NO
SIGNIFICANT WEATHER AND/OR OBSTRUCTIONS TO VISIBILITY.

COZ001>005-013-030-031-210800-
...NORTHWEST COLORADO...

CITY           SKY/WX    TMP DP  RH WIND       PRES   REMARKS
CRAIG          CLEAR     44  35  70 CALM      30.26S
HAYDEN         PTCLDY    54  28  37 SE8       30.27F
MEEKER         CLEAR     53  35  50 E8        30.26S
MOUNT WERNER   NOT AVBL
STEAMBOAT SPGS PTCLDY    51  36  57 CALM      30.31R
WALDEN         CLEAR     46  37  71 CALM      30.42S
$$

COZ006>008-011-210800-
...WEST CENTRAL VALLEYS...

CITY           SKY/WX    TMP DP  RH WIND       PRES   REMARKS
GRAND JUNCTION PTCLDY    68  42  38 SE9       30.10S
MONTROSE       PTCLDY    66  48  52 E6        30.20F
EAGLE          PTCLDY    57  43  58 CALM      30.31S
RIFLE          CLEAR     60  43  53 SE7       30.19R
DELTA          PTCLDY    75  41  29 NE10      30.16S
NUCLA          MOCLDY    66  43  42 SE8       30.22R
$$

COZ017>023-064>068-210800-
...SOUTHWEST COLORADO...

CITY           SKY/WX    TMP DP  RH WIND       PRES   REMARKS
DURANGO        TSTM      61  53  75 E21G28    30.30R
CORTEZ         LGT RAIN  71  50  47 SE30G45   30.19R
PAGOSA SPRINGS DRIZZLE   63  46  54 N6        30.38F
TELLURIDE      NOT AVBL
WOLF CREEK PAS CLOUDY    43  37  81 NE10      30.68S
$$

COZ009-010-012-014-032>034-037-058>063-210800-
...CENTRAL COLORADO...

CITY           SKY/WX    TMP DP  RH WIND       PRES   REMARKS
ASPEN          PTCLDY    62  42  47 SE16G22   30.37S
BUENA VISTA    CLOUDY    52  50  93 NW5       30.52F
COPPER MTN     PTCLDY    46  36  66 S30G36    30.69S
BERTHOUD PASS  FAIR      36  36 100 E24       30.73S
COTTONWOOD PAS CLOUDY    50  45  81 CALM      30.62S
GUNNISON       MOCLDY    57  43  58 NW8       30.44S
KREMMLING      PTCLDY    54  41  62 CALM      30.39S
LEADVILLE      MOCLDY    47  44  90 S12       30.59R
MONARCH PASS   HVY SNOW  41  39  93 NE22      30.79F VSB<1/4
SALIDA         CLOUDY    55  52  89 NW3       30.57S
SUNLIGHT       CLEAR     52  39  62 CALM      30.58F
WILKERSON PASS NOT AVBL
$$

COZ069>075-210800-
...SAN LUIS VALLEY/SANGRE DE CRISTO MOUNTAINS...

CITY           SKY/WX    TMP DP  RH WIND       PRES   REMARKS
ALAMOSA        MOCLDY    61  46  57 CALM      30.40S
LA VETA PASS   MOCLDY    46  43  87 NE14G20   30.60R
SAGUACHE       NOT AVBL
$$

COZ035-036-038>040-210800-
...NORTHERN COLORADO FRONT RANGE...

CITY           SKY/WX    TMP DP  RH WIND       PRES   REMARKS
DENVER INTL AP CLOUDY    63  53  70 SW9       30.34R
DMNS CITY PARK   N/A     62  53  70 S2        30.33S
AURORA         MOCLDY    62  53  73 S8        30.36R
FRONT RANGE AP MOCLDY    63  54  72 SW8       30.35R
ERIE MUNI ARPT MOCLDY    59  50  72 CALM      30.32R
BOULDER MUN AP MOCLDY    61  50  67 NW6       30.32R
CENTENNIAL     CLOUDY    58  54  86 S6        30.36R
BROOMFIELD     CLOUDY    63  48  59 CALM      30.35R
FORT COLLINS   PTCLDY    64  43  45 E12       30.35R
LONGMONT       CLOUDY    63  54  71 N6        30.34R
$$

COZ041-046-047-076>085-087-088-210800-
...PIKES PEAK/PALMER DIVIDE AND SOUTHERN FOOTHILLS...

CITY           SKY/WX    TMP DP  RH WIND       PRES   REMARKS
COLO. SPRINGS  CLOUDY    65  49  56 S6        30.41R
A. F. ACADEMY  DRIZZLE   59  52  77 CALM      30.42R
ELLICOTT       NOT AVBL
FALCON         CLOUDY    60  49  68 CALM      30.45R
FORT CARSON    DRIZZLE   66  52  59 S7        30.38R
LIMON          MOCLDY    56  46  69 CALM      30.34S
MONUMENT HILL  CLOUDY    54  50  87 S7        30.43S
TRINIDAD       MOCLDY    64  52  64 E9        30.34R
$$

COZ042>045-048>051-090-091-210800-
...NORTHEAST COLORADO...

CITY           SKY/WX    TMP DP  RH WIND       PRES   REMARKS
GREELEY ARPT   MOCLDY    63  43  48 E7        30.34R
AKRON          PTCLDY    57  44  62 E12       30.33R
BURLINGTON     PTCLDY    61  48  62 NE9       30.29R
WRAY           CLEAR     57  46  66 CALM      30.30R
STERLING       CLOUDY    57  50  77 N5        30.31R
HOLYOKE        CLEAR     55  46  71 N5        30.30S
FORT MORGAN    PTCLDY    58  44  59 NE12      30.32R
$$

COZ086-089-092>099-210800-
...SOUTHEAST COLORADO...

CITY           SKY/WX    TMP DP  RH WIND       PRES   REMARKS
PUEBLO         CLOUDY    70  49  47 E5        30.31R
LA JUNTA       CLOUDY    66  50  56 SE7       30.26R
LAMAR          CLEAR     59  50  72 SE5       30.22S
SPRINGFIELD      N/A     64  56  75 NE8       30.26S
$$



USA.gov is the U.S. government's official web portal to all federal, state and local government web resources and services.